| time (UTC) | temp F | wind direction | speed MPH | gust MPH | rain 1hr in | rain 24hr in | rain mn in | humidity % | barometer mb |
| 20260906200213 | 89 | 130 | 10.0 | 16.0 | 0.00 | 0.01 | 0.01 | 50 | 1013.2 |
| 20260906195403 | 89 | 127 | 11.0 | 17.0 | 0.00 | 0.01 | 0.01 | 52 | 1013.3 |
| 20260906194717 | 88 | 125 | 12.0 | 18.0 | 0.00 | 0.01 | 0.01 | 53 | 1013.3 |
| 20260906193814 | 89 | 125 | 12.0 | 18.0 | 0.00 | 0.01 | 0.01 | 52 | 1013.4 |
| 20260906192703 | 87 | 117 | 13.0 | 23.0 | 0.00 | 0.01 | 0.01 | 56 | 1013.5 |
| 20260906191803 | 86 | 118 | 14.0 | 18.0 | 0.00 | 0.01 | 0.01 | 58 | 1013.5 |
| 20260906191116 | 87 | 120 | 13.0 | 18.0 | 0.00 | 0.01 | 0.01 | 57 | 1013.7 |
| 20260906190003 | 85 | 113 | 14.0 | 20.0 | 0.00 | 0.01 | 0.01 | 60 | 1013.8 |
| 20260906185615 | 84 | 114 | 14.0 | 20.0 | 0.00 | 0.01 | 0.01 | 62 | 1013.8 |
| 20260906184712 | 82 | 116 | 15.0 | 20.0 | 0.00 | 0.01 | 0.01 | 64 | 1013.9 |
| 20260906183603 | 81 | 113 | 12.0 | 17.0 | 0.00 | 0.01 | 0.01 | 66 | 1014.2 |
| 20260906182703 | 80 | 110 | 10.0 | 16.0 | 0.00 | 0.01 | 0.01 | 69 | 1014.4 |
| 20260906182014 | 79 | 107 | 10.0 | 18.0 | 0.00 | 0.01 | 0.01 | 71 | 1014.6 |
| 20260906180903 | 78 | 99 | 8.0 | 14.0 | 0.00 | 0.01 | 0.01 | 73 | 1014.9 |
| 20260906180214 | 78 | 103 | 9.0 | 14.0 | 0.00 | 0.01 | 0.01 | 73 | 1015.0 |
| 20260906175403 | 77 | 99 | 9.0 | 15.0 | 0.00 | 0.01 | 0.01 | 74 | 1014.8 |
| 20260906174713 | 77 | 97 | 8.0 | 15.0 | 0.00 | 0.01 | 0.01 | 74 | 1015.2 |
| 20260906173815 | 77 | 93 | 6.0 | 12.0 | 0.00 | 0.01 | 0.01 | 75 | 1015.7 |
| 20260906172912 | 77 | 95 | 6.0 | 14.0 | 0.00 | 0.01 | 0.01 | 75 | 1015.9 |
| 20260906171803 | 77 | 90 | 7.0 | 14.0 | 0.00 | 0.01 | 0.01 | 75 | 1016.1 |
| 20260906171112 | 76 | 91 | 7.0 | 14.0 | 0.00 | 0.01 | 0.01 | 75 | 1016.2 |
| 20260906170003 | 76 | 81 | 10.0 | 17.0 | 0.00 | 0.01 | 0.01 | 76 | 1016.0 |
| 20260906165403 | 76 | 78 | 8.0 | 16.0 | 0.00 | 0.01 | 0.01 | 76 | 1016.2 |
| 20260906164713 | 76 | 80 | 6.0 | 15.0 | 0.00 | 0.01 | 0.01 | 77 | 1016.4 |
| 20260906163603 | 76 | 135 | 3.0 | 8.0 | 0.01 | 0.01 | 0.01 | 78 | 1016.6 |
| 20260906162913 | 76 | 115 | 3.0 | 10.0 | 0.01 | 0.01 | 0.01 | 79 | 1016.8 |
| 20260906161803 | 76 | 356 | 3.0 | 6.0 | 0.01 | 0.01 | 0.01 | 82 | 1017.1 |
| 20260906160903 | 76 | 329 | 2.0 | 4.0 | 0.01 | 0.01 | 0.01 | 81 | 1017.5 |
| 20260906160215 | 76 | 333 | 2.0 | 4.0 | 0.01 | 0.01 | 0.01 | 81 | 1017.6 |
| 20260906155617 | 76 | 350 | 2.0 | 7.0 | 0.01 | 0.01 | 0.01 | 81 | 1017.5 |
| 20260906154503 | 76 | 357 | 1.0 | 4.0 | 0.00 | 0.00 | 0.00 | 83 | 1017.3 |
| 20260906153816 | 76 | 352 | 2.0 | 5.0 | 0.00 | 0.00 | 0.00 | 82 | 1017.3 |
| 20260906152703 | 76 | 337 | 1.0 | 4.0 | 0.00 | 0.00 | 0.00 | 80 | 1017.1 |
| 20260906151803 | 77 | 343 | 1.0 | 2.0 | 0.00 | 0.00 | 0.00 | 77 | 1017.0 |
| 20260906151113 | 77 | 12 | 1.0 | 3.0 | 0.00 | 0.00 | 0.00 | 75 | 1016.6 |
| 20260906150003 | 78 | 117 | 1.0 | 3.0 | 0.00 | 0.00 | 0.00 | 75 | 1016.3 |
| 20260906145612 | 78 | 103 | 1.0 | 4.0 | 0.00 | 0.00 | 0.00 | 75 | 1016.3 |
| 20260906144715 | 77 | 335 | 2.0 | 9.0 | 0.00 | 0.00 | 0.00 | 75 | 1016.3 |
| 20260906143817 | 77 | 348 | 2.0 | 9.0 | 0.00 | 0.00 | 0.00 | 76 | 1016.2 |
| 20260906142914 | 77 | 349 | 2.0 | 8.0 | 0.00 | 0.00 | 0.00 | 77 | 1016.2 |
| 20260906141803 | 76 | 338 | 3.0 | 9.0 | 0.00 | 0.00 | 0.00 | 78 | 1016.3 |
| 20260906140903 | 76 | 341 | 3.0 | 8.0 | 0.00 | 0.00 | 0.00 | 78 | 1016.3 |
| 20260906140003 | 76 | 351 | 4.0 | 10.0 | 0.00 | 0.00 | 0.00 | 78 | 1016.2 |
| 20260906135403 | 76 | 340 | 5.0 | 11.0 | 0.00 | 0.00 | 0.00 | 78 | 1016.2 |
| 20260906134503 | 75 | 347 | 4.0 | 11.0 | 0.00 | 0.00 | 0.00 | 78 | 1016.2 |
| 20260906133603 | 75 | 340 | 3.0 | 9.0 | 0.00 | 0.00 | 0.00 | 80 | 1016.3 |
| 20260906132915 | 74 | 347 | 4.0 | 10.0 | 0.00 | 0.00 | 0.00 | 80 | 1016.4 |
| 20260906131803 | 74 | 350 | 4.0 | 10.0 | 0.00 | 0.00 | 0.00 | 80 | 1016.3 |
| 20260906130903 | 75 | 341 | 3.0 | 12.0 | 0.00 | 0.00 | 0.00 | 79 | 1016.2 |
| 20260906130217 | 75 | 327 | 3.0 | 9.0 | 0.00 | 0.00 | 0.00 | 78 | 1016.2 |
| 20260906125614 | 76 | 348 | 3.0 | 14.0 | 0.00 | 0.00 | 0.00 | 77 | 1016.3 |
| 20260906124716 | 76 | 346 | 4.0 | 14.0 | 0.00 | 0.00 | 0.00 | 76 | 1016.0 |
| 20260906123603 | 76 | 330 | 3.0 | 9.0 | 0.00 | 0.00 | 0.00 | 71 | 1016.1 |
| 20260906122703 | 76 | 308 | 4.0 | 9.0 | 0.00 | 0.00 | 0.00 | 72 | 1015.8 |
| 20260906121803 | 76 | 303 | 5.0 | 9.0 | 0.00 | 0.00 | 0.00 | 72 | 1015.5 |
| 20260906121115 | 75 | 299 | 6.0 | 12.0 | 0.00 | 0.00 | 0.00 | 73 | 1015.2 |
| 20260906120003 | 74 | 260 | 1.0 | 3.0 | 0.00 | 0.00 | 0.00 | 76 | 1014.8 |
| 20260906115614 | 73 | 249 | 1.0 | 3.0 | 0.00 | 0.00 | 0.00 | 76 | 1014.6 |
| 20260906114503 | 74 | 224 | 1.0 | 3.0 | 0.00 | 0.00 | 0.00 | 76 | 1014.3 |
| 20260906113603 | 74 | 199 | 1.0 | 3.0 | 0.00 | 0.00 | 0.00 | 76 | 1014.0 |
| 20260906112703 | 74 | 215 | 1.0 | 3.0 | 0.00 | 0.00 | 0.00 | 76 | 1013.9 |
| 20260906111803 | 74 | 224 | 2.0 | 3.0 | 0.00 | 0.00 | 0.00 | 75 | 1013.8 |
| 20260906110903 | 74 | 198 | 2.0 | 4.0 | 0.00 | 0.00 | 0.00 | 74 | 1013.6 |
| 20260906110213 | 74 | 183 | 3.0 | 5.0 | 0.00 | 0.00 | 0.00 | 74 | 1013.4 |
| 20260906105615 | 74 | 180 | 3.0 | 6.0 | 0.00 | 0.00 | 0.00 | 74 | 1013.1 |
| 20260906104717 | 74 | 172 | 4.0 | 6.0 | 0.00 | 0.00 | 0.00 | 74 | 1012.9 |
| 20260906103815 | 74 | 164 | 4.0 | 6.0 | 0.00 | 0.00 | 0.00 | 74 | 1012.7 |
| 20260906102703 | 74 | 168 | 4.0 | 6.0 | 0.00 | 0.00 | 0.00 | 74 | 1012.9 |
| 20260906101803 | 74 | 166 | 5.0 | 6.0 | 0.00 | 0.00 | 0.00 | 75 | 1012.8 |
| 20260906101117 | 74 | 167 | 4.0 | 6.0 | 0.00 | 0.00 | 0.00 | 74 | 1012.9 |
| 20260906100003 | 75 | 163 | 5.0 | 6.0 | 0.00 | 0.00 | 0.00 | 74 | 1012.8 |
| 20260906095403 | 75 | 165 | 4.0 | 8.0 | 0.00 | 0.00 | 0.00 | 73 | 1012.8 |
| 20260906094504 | 76 | 168 | 5.0 | 8.0 | 0.00 | 0.00 | 0.00 | 72 | 1012.8 |
| 20260906093603 | 76 | 177 | 5.0 | 8.0 | 0.00 | 0.00 | 0.00 | 72 | 1012.8 |
| 20260906092703 | 76 | 174 | 5.0 | 8.0 | 0.00 | 0.00 | 0.00 | 72 | 1012.8 |
| 20260906091803 | 76 | 175 | 5.0 | 9.0 | 0.00 | 0.00 | 0.00 | 72 | 1012.7 |
| 20260906091112 | 76 | 164 | 5.0 | 9.0 | 0.00 | 0.00 | 0.00 | 72 | 1012.7 |
| 20260906090003 | 76 | 157 | 5.0 | 9.0 | 0.00 | 0.00 | 0.00 | 73 | 1012.5 |
| 20260906085403 | 75 | 163 | 5.0 | 6.0 | 0.00 | 0.00 | 0.00 | 75 | 1012.6 |
| 20260906084503 | 76 | 165 | 5.0 | 8.0 | 0.00 | 0.00 | 0.00 | 74 | 1012.7 |
| 20260906083816 | 76 | 162 | 6.0 | 9.0 | 0.00 | 0.00 | 0.00 | 73 | 1012.5 |
| 20260906082913 | 76 | 164 | 5.0 | 8.0 | 0.00 | 0.00 | 0.00 | 72 | 1012.6 |
| 20260906082016 | 77 | 164 | 6.0 | 9.0 | 0.00 | 0.00 | 0.00 | 72 | 1012.6 |
| 20260906080903 | 77 | 166 | 5.0 | 9.0 | 0.00 | 0.00 | 0.00 | 71 | 1012.7 |
| 20260906080003 | 77 | 168 | 5.0 | 7.0 | 0.00 | 0.00 | 0.00 | 72 | 1012.9 |
| 20260906075403 | 77 | 165 | 5.0 | 8.0 | 0.00 | 0.00 | 0.00 | 72 | 1012.8 |
| 20260906074714 | 77 | 163 | 5.0 | 8.0 | 0.00 | 0.00 | 0.00 | 72 | 1012.8 |
| 20260906073603 | 78 | 160 | 5.0 | 8.0 | 0.00 | 0.00 | 0.00 | 71 | 1012.8 |
| 20260906072703 | 78 | 161 | 5.0 | 8.0 | 0.00 | 0.00 | 0.00 | 72 | 1012.9 |
| 20260906071803 | 76 | 168 | 3.0 | 5.0 | 0.00 | 0.00 | 0.00 | 75 | 1012.9 |
| 20260906071113 | 76 | 175 | 3.0 | 5.0 | 0.00 | 0.00 | 0.00 | 76 | 1012.9 |
| 20260906070216 | 76 | 184 | 3.0 | 5.0 | 0.00 | 0.00 | 0.00 | 76 | 1013.0 |
| 20260906065403 | 75 | 186 | 3.0 | 5.0 | 0.00 | 0.00 | 0.00 | 77 | 1012.9 |
| 20260906064503 | 75 | 177 | 3.0 | 5.0 | 0.00 | 0.00 | 0.00 | 78 | 1012.8 |
| 20260906063603 | 74 | 162 | 1.0 | 4.0 | 0.00 | 0.00 | 0.00 | 80 | 1012.7 |
| 20260906062703 | 74 | 142 | 2.0 | 2.0 | 0.00 | 0.00 | 0.00 | 80 | 1012.7 |
| 20260906062017 | 74 | 132 | 1.0 | 2.0 | 0.00 | 0.00 | 0.00 | 80 | 1012.7 |
| 20260906060903 | 74 | 143 | 1.0 | 2.0 | 0.00 | 0.00 | 0.00 | 79 | 1012.7 |
| 20260906060216 | 74 | 135 | 2.0 | 3.0 | 0.00 | 0.00 | 0.00 | 79 | 1012.6 |
| 20260906055613 | 74 | 131 | 2.0 | 3.0 | 0.00 | 0.00 | 0.00 | 78 | 1012.5 |
| 20260906054503 | 75 | 128 | 3.0 | 4.0 | 0.00 | 0.00 | 0.00 | 76 | 1012.4 |
| 20260906053813 | 75 | 133 | 2.0 | 4.0 | 0.00 | 0.00 | 0.00 | 77 | 1012.4 |
| 20260906052915 | 75 | 126 | 2.0 | 4.0 | 0.00 | 0.00 | 0.00 | 76 | 1012.3 |
| 20260906051803 | 76 | 123 | 3.0 | 6.0 | 0.00 | 0.00 | 0.00 | 75 | 1012.4 |
| 20260906050903 | 76 | 118 | 4.0 | 7.0 | 0.00 | 0.00 | 0.00 | 74 | 1012.4 |
| 20260906050217 | 77 | 114 | 4.0 | 7.0 | 0.00 | 0.00 | 0.00 | 73 | 1012.5 |
| 20260906045614 | 76 | 124 | 2.0 | 4.0 | 0.00 | 0.00 | 0.00 | 73 | 1012.5 |
| 20260906044503 | 76 | 161 | 2.0 | 4.0 | 0.00 | 0.00 | 0.00 | 74 | 1012.4 |
| 20260906043603 | 76 | 159 | 2.0 | 4.0 | 0.00 | 0.00 | 0.00 | 74 | 1012.4 |
| 20260906042916 | 76 | 152 | 1.0 | 3.0 | 0.00 | 0.00 | 0.00 | 71 | 1012.4 |
| 20260906041803 | 78 | 206 | 1.0 | 3.0 | 0.00 | 0.00 | 0.00 | 69 | 1012.3 |
| 20260906041115 | 78 | 207 | 1.0 | 3.0 | 0.00 | 0.00 | 0.00 | 69 | 1012.4 |
| 20260906040213 | 78 | 190 | 2.0 | 4.0 | 0.00 | 0.00 | 0.00 | 69 | 1012.3 |
| 20260906035614 | 78 | 187 | 2.0 | 5.0 | 0.00 | 0.00 | 0.00 | 68 | 1012.4 |
| 20260906034717 | 78 | 196 | 2.0 | 4.0 | 0.00 | 0.00 | 0.00 | 67 | 1012.4 |
| 20260906033603 | 79 | 190 | 2.0 | 5.0 | 0.00 | 0.00 | 0.00 | 66 | 1012.4 |
| 20260906032703 | 79 | 187 | 2.0 | 5.0 | 0.00 | 0.00 | 0.00 | 66 | 1012.4 |
| 20260906031803 | 78 | 162 | 2.0 | 4.0 | 0.00 | 0.00 | 0.00 | 67 | 1012.2 |
| 20260906031116 | 78 | 133 | 2.0 | 4.0 | 0.00 | 0.00 | 0.00 | 66 | 1012.2 |
| 20260906030213 | 79 | 122 | 3.0 | 4.0 | 0.00 | 0.00 | 0.00 | 65 | 1012.0 |
| 20260906025615 | 79 | 124 | 3.0 | 4.0 | 0.00 | 0.00 | 0.00 | 65 | 1011.9 |
| 20260906024503 | 80 | 119 | 3.0 | 6.0 | 0.00 | 0.00 | 0.00 | 63 | 1011.8 |
| 20260906023603 | 80 | 121 | 4.0 | 6.0 | 0.00 | 0.00 | 0.00 | 63 | 1011.7 |
| 20260906022703 | 81 | 120 | 3.0 | 6.0 | 0.00 | 0.00 | 0.00 | 62 | 1011.6 |
| 20260906022014 | 81 | 125 | 4.0 | 6.0 | 0.00 | 0.00 | 0.00 | 61 | 1011.6 |
| 20260906020903 | 82 | 124 | 3.0 | 6.0 | 0.00 | 0.00 | 0.00 | 60 | 1011.5 |
| 20260906020214 | 83 | 140 | 3.0 | 6.0 | 0.00 | 0.00 | 0.00 | 59 | 1011.4 |
| 20260906015616 | 83 | 143 | 3.0 | 6.0 | 0.00 | 0.00 | 0.00 | 59 | 1011.5 |
| 20260906014503 | 82 | 138 | 3.0 | 4.0 | 0.00 | 0.00 | 0.00 | 59 | 1011.1 |
| 20260906013815 | 83 | 128 | 3.0 | 4.0 | 0.00 | 0.00 | 0.00 | 58 | 1011.1 |
| 20260906012703 | 85 | 132 | 3.0 | 7.0 | 0.00 | 0.00 | 0.00 | 55 | 1011.0 |
| 20260906011803 | 85 | 135 | 3.0 | 5.0 | 0.00 | 0.00 | 0.00 | 54 | 1010.8 |
| 20260906011112 | 86 | 151 | 4.0 | 6.0 | 0.00 | 0.00 | 0.00 | 53 | 1010.8 |
| 20260906010215 | 87 | 150 | 4.0 | 7.0 | 0.00 | 0.00 | 0.00 | 51 | 1010.9 |
| 20260906005616 | 87 | 134 | 4.0 | 7.0 | 0.00 | 0.00 | 0.00 | 50 | 1010.8 |
| 20260906004713 | 89 | 145 | 5.0 | 7.0 | 0.00 | 0.00 | 0.00 | 48 | 1010.8 |
| 20260906003816 | 90 | 155 | 6.0 | 9.0 | 0.00 | 0.00 | 0.00 | 46 | 1010.8 |
| 20260906002913 | 92 | 166 | 6.0 | 10.0 | 0.00 | 0.00 | 0.00 | 43 | 1011.0 |
| 20260906002016 | 93 | 172 | 7.0 | 12.0 | 0.00 | 0.00 | 0.00 | 42 | 1011.0 |
| 20260906000903 | 94 | 160 | 9.0 | 14.0 | 0.00 | 0.00 | 0.00 | 41 | 1011.0 |
| 20260906000215 | 94 | 147 | 8.0 | 12.0 | 0.00 | 0.00 | 0.00 | 41 | 1011.0 |
| 20260905235617 | 94 | 153 | 9.0 | 14.0 | 0.00 | 0.00 | 0.00 | 39 | 1010.8 |
| 20260905234714 | 94 | 163 | 10.0 | 16.0 | 0.00 | 0.00 | 0.00 | 39 | 1010.8 |
| 20260905233816 | 94 | 160 | 11.0 | 16.0 | 0.00 | 0.00 | 0.00 | 39 | 1010.9 |
| 20260905232914 | 94 | 159 | 12.0 | 17.0 | 0.00 | 0.00 | 0.00 | 39 | 1010.9 |
| 20260905232016 | 94 | 159 | 12.0 | 18.0 | 0.00 | 0.00 | 0.00 | 38 | 1010.9 |
| 20260905230903 | 94 | 150 | 13.0 | 21.0 | 0.00 | 0.00 | 0.00 | 38 | 1011.1 |
| 20260905230003 | 96 | 164 | 12.0 | 21.0 | 0.00 | 0.00 | 0.00 | 38 | 1011.1 |
| 20260905225612 | 96 | 162 | 12.0 | 17.0 | 0.00 | 0.00 | 0.00 | 38 | 1011.0 |
| 20260905224503 | 95 | 168 | 12.0 | 20.0 | 0.00 | 0.00 | 0.00 | 39 | 1011.0 |
| 20260905223603 | 94 | 180 | 11.0 | 17.0 | 0.00 | 0.00 | 0.00 | 42 | 1011.0 |
| 20260905222703 | 93 | 186 | 10.0 | 18.0 | 0.00 | 0.00 | 0.00 | 44 | 1011.0 |
| 20260905221803 | 92 | 190 | 12.0 | 20.0 | 0.00 | 0.00 | 0.00 | 44 | 1010.9 |
| 20260905220903 | 92 | 176 | 16.0 | 25.0 | 0.00 | 0.00 | 0.00 | 43 | 1010.9 |
| 20260905220003 | 94 | 171 | 17.0 | 25.0 | 0.00 | 0.00 | 0.00 | 40 | 1010.7 |
| 20260905215403 | 95 | 163 | 17.0 | 27.0 | 0.00 | 0.00 | 0.00 | 39 | 1010.7 |
| 20260905214715 | 95 | 164 | 15.0 | 23.0 | 0.00 | 0.00 | 0.00 | 41 | 1010.6 |
| 20260905213813 | 94 | 165 | 16.0 | 25.0 | 0.00 | 0.00 | 0.00 | 40 | 1010.6 |
| 20260905212915 | 94 | 166 | 17.0 | 26.0 | 0.00 | 0.00 | 0.00 | 40 | 1010.7 |
| 20260905211803 | 95 | 169 | 17.0 | 30.0 | 0.00 | 0.00 | 0.00 | 39 | 1010.9 |
| 20260905211115 | 97 | 153 | 16.0 | 30.0 | 0.00 | 0.00 | 0.00 | 40 | 1011.0 |
| 20260905210212 | 99 | 160 | 14.0 | 22.0 | 0.00 | 0.00 | 0.00 | 39 | 1010.8 |
| 20260905205614 | 100 | 164 | 14.0 | 22.0 | 0.00 | 0.00 | 0.00 | 38 | 1010.7 |
| 20260905204716 | 100 | 168 | 10.0 | 22.0 | 0.00 | 0.00 | 0.00 | 39 | 1010.8 |
| 20260905203603 | 99 | 166 | 8.0 | 15.0 | 0.00 | 0.00 | 0.00 | 38 | 1010.9 |
| 20260905202916 | 100 | 144 | 9.0 | 18.0 | 0.00 | 0.00 | 0.00 | 39 | 1010.9 |
| 20260905202013 | 100 | 144 | 10.0 | 18.0 | 0.00 | 0.00 | 0.00 | 39 | 1011.0 |
| 20260905200903 | 98 | 176 | 10.0 | 17.0 | 0.00 | 0.00 | 0.00 | 40 | 1011.2 |